CAPE
1280 1553 1835 1990 1922 1892 1932 2039 2286 2366 2516 2604 2883 2951 2937 2893 2948 2900 2822 2786 1965 1473 1352 1186 1285 1388 1460 1354 1214 1412 1442 1326 1506 1627 1202 1229 1462 3066 2814 2754 2786 2902 2778 2764 2630 2504 2472 2372 2494 2471 2464 2523 2432 2453 2453 2470 2331 2446 2229 2580 2609 2575 2581 2647 2677 2671 2657 2630 2611 2618 2552 2484 2554 2494 2432 2356 2390 2538 2605 2523 2442 2371 2471 2499 2548
1679 1655 1840 1872 1673 1928 2107 2282 2500 2578 2365 2711 3000 2830 2677 2668 3038 2994 2855 2715 2136 1785 1892 1198 1338 1111 1258 1260 1309 1266 1434 1578 1738 1840 1830 1472 1400 2481 2835 2957 2877 2999 3016 2981 2876 3026 3048 2987 2904 2882 2863 2979 3076 3170 3222 3165 3058 3111 3113 3266 3360 3320 3338 3355 3291 3262 3108 3005 2940 2900 2930 2932 2858 2855 2860 2865 2917 2849 2814 2817 2778 2717 2677 2731 2834
1691 1688 1728 1782 1832 2118 2235 2406 2544 2618 2614 2660 2929 3071 3043 3082 3202 3225 2991 2980 2468 1936 1735 1378 1303 1280 1258 1289 1024 1146 1279 1518 1760 1859 1848 1899 2116 2274 3932 2934 2782 2798 3209 3179 3295 3264 3256 3313 3301 3312 3328 3391 3438 3481 3479 3460 3422 3467 3557 3597 3684 3796 3809 3790 3790 3738 3561 3370 3249 3260 3292 3339 3362 3298 3245 3231 3217 3194 3154 3123 3134 3196 3223 3216 3154
2084 1962 1941 2000 2144 2302 2613 2771 2801 3041 3115 3209 3165 3175 3362 3362 3198 3148 3300 3073 2352 1914 1814 1563 1604 1116 1183 906 1195 1353 1482 1831 1771 1515 1902 2362 2734 2553 2698 3706 3028 2911 2966 3197 3337 3472 3631 3613 3703 3865 3879 3896 3854 3931 3991 4025 4008 4006 4050 4103 4128 4163 4178 4190 4037 3859 3780 3733 3738 3738 3723 3750 3812 3721 3597 3495 3413 3341 3344 3422 3228 3222 3243 3074 3035
3074 2197 2300 2389 2521 2611 2763 3024 3263 3304 3252 3172 3119 3468 3471 3202 3233 3110 2899 2606 2016 1786 1781 1438 1262 1406 1378 1018 1229 1329 1491 1767 1870 2290 2186 2200 2489 2618 2527 2600 3267 3556 3069 3237 3069 3295 3272 3615 3965 4203 4386 4345 4246 4212 4182 4322 4345 4364 4443 4425 4486 4588 4625 4568 4533 4394 4342 4348 4355 4356 4336 4275 3933 3661 3701 3800 3751 3764 3755 3748 3637 3449 3282 3407 3309
2948 3087 2498 2515 2761 2902 2839 3098 3545 3602 3316 3651 3368 3320 3486 3421 3105 2575 2677 2379 1883 1917 1657 1543 1475 1524 1462 1214 1417 1669 1837 1819 2052 1811 2144 2139 2137 2513 2544 2737 3015 3060 3880 3636 3214 3306 3433 3604 3750 3896 3933 4178 4276 4338 4329 4449 4518 4569 4507 4490 4542 4678 4715 4542 4583 4653 4771 4761 4717 4733 4632 4367 4090 4091 4072 4004 4125 4092 4058 4040 3945 3758 3654 3628 3577
3058 2964 2696 2561 2574 2734 2916 3330 3688 3734 3354 3159 3520 3364 3468 3278 3091 2494 2505 2285 2044 1685 1808 1458 1562 1130 1577 1786 1717 1838 1954 1745 1820 1774 1917 2153 2272 2156 2381 2546 2568 2750 2782 2882 4388 3134 3689 3934 4052 4087 3906 3957 4102 4359 4393 4598 4819 4869 4752 4794 4756 4635 4582 4469 4585 4700 4698 4739 4742 4774 4708 4435 4641 4579 4399 4293 4171 4175 4070 3860 3907 3954 3873 3776 3609
2766 2889 2599 2683 2553 2751 3120 3411 3764 3578 3251 3188 3653 3373 3512 3210 3391 2993 2798 2061 1857 1614 1544 1482 1344 1290 1402 1664 1663 1763 1884 1878 1827 1848 1596 1839 2081 2212 2343 2428 2555 2486 2301 2647 2479 4886 3391 3815 3666 3724 3705 4140 4224 4210 4332 4340 4358 4483 4589 4613 4645 4761 4856 5018 5100 5028 4830 4742 4718 4790 4800 4805 4716 4492 4354 4332 4204 4110 4013 3945 3606 3723 3641 3396 3016
2828 2954 2876 2743 2631 2687 3135 3472 3643 3550 3858 3662 3326 3226 3216 2700 3653 3536 3117 2280 1606 1615 1473 1354 1156 1226 1339 1485 1677 1694 2081 1864 1829 1529 1684 2038 2259 1915 1972 2287 2166 2512 3524 2584 2579 2576 4252 3293 3904 3532 3620 3868 4046 3972 3763 4032 4242 4385 4425 4398 4530 4729 4836 4991 5078 5169 5218 4990 5083 4954 4800 4536 4368 4254 4244 4192 4129 4021 3796 3394 2829 2289 1894 1530 1306
3184 3501 3386 2893 2985 3100 3142 3253 3436 3791 3896 3382 3444 3193 3322 2869 3460 3336 3122 2284 1650 1597 1420 1284 963 1009 1162 1363 1487 1883 1650 1870 1596 1644 1908 1959 2006 2005 1938 1940 2108 2239 2275 2379 2227 2715 2932 4065 2794 3102 3344 3660 3565 3896 3937 3982 4172 4215 4165 4434 4888 5089 5344 5325 5346 5415 5228 5215 5002 4465 4352 4146 4162 4057 4084 4020 4034 3788 3192 2787 2132 1591 1500 1443 1308
3343 3443 3722 3134 3010 3068 3246 3028 3240 3431 3756 3100 3213 3417 3683 3283 3235 3523 3198 2164 2023 1710 1647 1552 1174 1328 1274 1383 1514 1665 1694 1458 1820 1828 1822 1449 1361 1747 1555 1986 1767 2358 2654 2619 2124 2639 2941 3115 3220 3259 5186 3238 4104 3732 3955 4002 3932 4155 4325 4781 5340 5677 5638 5515 5389 5029 5182 5054 4391 4290 4150 3973 4046 4069 3890 3991 3870 3190 2641 2181 1864 1490 1173 1212 1103
3059 3207 3437 3361 3304 3097 3187 3313 3099 3544 3762 3495 3590 3669 3553 3378 3325 3280 2760 2212 1796 1719 1465 1709 1423 1538 1583 1583 1448 1730 1985 1720 1920 1747 1628 1659 1575 1546 1313 1469 1767 1860 1951 1952 2114 2073 2599 3052 3423 2865 3287 4215 3313 3842 3743 3434 3762 3791 4389 5291 5474 5880 5822 5394 5239 4990 4985 4774 4482 4313 4091 4117 4128 3999 3929 3958 3483 2820 2198 1988 1768 1371 1067 818 738
3172 3700 3439 3122 3421 3284 3295 3307 3251 3369 3802 3777 3630 3670 3539 3174 3360 3357 2554 2149 1804 1753 1665 1831 1863 1604 1917 1630 1666 1785 1682 2023 1760 1461 1312 1037 1236 1651 1261 1198 1538 1705 1892 1859 2251 2239 2476 2743 2845 2936 2944 3767 5298 3399 3602 3761 3545 3664 4560 5075 5378 5520 5616 4995 4954 4938 5027 4913 4687 4400 4218 4138 4059 3925 3909 3717 3134 2468 2113 1911 1646 1164 906 612 638
3529 3798 3952 3894 3372 3161 3372 3411 3152 3425 3573 3426 3612 3301 3301 3232 3106 3334 2399 1982 1781 1862 1923 2161 1570 1673 1709 1419 1535 1626 1800 1703 1602 879 931 825 686 940 1090 1106 846 1306 1180 2072 2358 2653 1951 2322 2430 2688 3197 3256 3224 3465 4323 5841 4949 3366 4272 4652 5457 5322 4887 4821 4712 4842 5076 5104 4596 4417 4332 4149 3932 3822 3691 3507 2592 2359 2104 2154 2150 1991 1698 1283 723
3883 3768 3993 3620 3479 3497 3468 3539 3374 3318 3579 3802 3528 3477 3264 3138 3515 2960 2712 2165 1927 1815 2300 2474 1622 1600 1983 1786 1598 1497 1695 1564 1236 1022 963 992 1053 383 877 1179 771 972 1328 1635 1841 1635 1814 2227 2542 3144 3525 3485 3315 3605 3936 3707 3508 4017 4003 3945 3611 3895 4657 4538 4377 4439 4900 5091 4765 4459 4283 4184 3901 3767 3435 3265 2922 2261 2073 2131 2215 2300 2140 1798 1403
3436 3429 3512 3532 3391 3273 3264 3275 3392 3450 3359 3550 3414 3420 3556 3571 3470 3156 2708 2242 1967 2013 1978 2356 2526 2460 1642 1788 1754 1761 1466 1702 1882 1377 1009 823 992 598 919 1018 673 952 1634 1456 1096 1799 1975 2295 2596 3509 3430 3577 3615 3860 3584 3437 4309 4520 4059 5366 2849 3072 4088 4178 4394 4220 4448 4848 4774 4606 4401 4172 3901 3766 3195 3049 3130 2693 2361 2242 2220 2265 2356 2136 1820
3479 3642 3543 3665 3544 3582 3274 3336 3547 3535 3288 3321 3437 3268 2805 3452 3216 3305 2833 2637 2265 2304 1899 2173 2536 2929 2522 2206 1313 1981 1999 1704 1720 1424 1640 1230 837 640 870 1308 880 1454 815 1098 1223 1005 1446 2342 3033 3196 3629 3670 3587 3680 3612 3857 4042 5082 5796 4549 3644 3348 3784 3775 4086 4076 4258 4554 4601 4669 4420 4239 4049 3840 3388 3108 3022 2838 2544 2506 2428 2335 2304 2308 2052
3706 3922 3727 3520 3651 3481 3267 3294 3630 3387 3291 3699 3471 2819 2654 3554 3203 3323 3141 2686 2676 2553 2243 2067 2227 2681 2677 1956 2429 2387 2260 2026 2267 1889 1333 1303 1370 753 769 1268 942 885 1217 936 694 541 1188 1279 2636 2907 3072 3328 3548 3668 3895 3726 3898 4012 3959 5125 3611 4217 3806 3338 3726 4132 4289 4347 4704 4598 4554 4300 4079 3804 3399 3275 3010 2680 2639 2605 2533 2445 2378 2345 2154
3155 3446 3854 3852 3548 3398 3370 3230 3225 3533 3318 3300 3430 2939 2695 3068 3089 3353 3126 2956 2806 2607 2534 2253 2373 2428 2047 1936 2091 2035 1926 2154 2132 2039 2085 1755 1600 1287 881 1076 903 890 779 923 1116 782 1372 1450 1596 1116 2876 3212 3287 2240 3123 3241 3670 3888 3935 4236 3324 3876 3853 3382 3223 3574 4190 4209 4594 4568 4574 4470 4259 4055 3616 3179 3036 2888 2733 2641 2584 2532 2458 2325 2240
3112 3105 3675 3574 3286 3602 3530 3265 3337 3618 3015 3171 3036 2648 2649 3182 3215 3521 3543 3325 2968 2663 2589 2479 2789 2165 2307 2351 2117 2128 2344 2094 2117 2140 2121 2154 1445 1124 1167 977 1001 582 730 729 935 988 954 1436 1012 1271 1254 2282 2914 2856 1487 1757 2970 2877 3534 4500 3828 4006 3980 3720 3511 3701 4064 4200 4471 4597 4486 4510 4429 4216 3845 3453 3070 3066 2937 2742 2621 2556 2460 2373 2307
2914 3284 3140 3247 2967 3601 3433 3283 3430 3305 2810 3045 2393 2576 2936 3219 3432 3732 3584 3388 3047 2826 3034 2706 2857 2829 2874 2904 2596 2234 1859 1819 2099 2163 2047 2094 1584 1760 1833 1236 1097 1243 1146 1047 744 695 811 1062 1314 1464 1314 1278 1662 2112 1057 2234 3279 3092 4014 3690 3829 4331 4473 4021 3565 3592 4196 4435 4453 4378 4339 4291 4291 4354 4075 3267 3033 3050 2999 2897 2729 2588 2465 2386 2258
3247 3032 3388 3122 3460 3563 3532 3492 3381 3054 2708 3349 2641 2718 3212 3450 3268 3347 3510 3153 3248 3188 3210 2886 2526 2851 2932 2867 3098 2673 2522 2212 2030 1884 1984 2040 1607 1812 1569 1568 2085 1084 1810 1199 920 837 894 849 1035 1012 1063 1705 1371 2142 3092 2665 3378 2232 3610 3282 3530 3711 3867 3821 3398 3489 3666 3742 4143 4227 4223 4245 4174 4089 4114 3501 2952 2967 2994 2934 2822 2701 2551 2420 2258
2916 2951 3036 3184 3501 3633 3585 3390 3642 3300 2891 2934 3070 2482 2764 2920 2970 3354 3412 3412 3195 3644 2981 2729 2774 2846 2824 2850 2670 2208 2506 2590 2497 2421 2076 2006 2157 1762 1791 1514 1647 1559 1481 1420 1246 1184 1377 1755 1281 1081 777 1212 2258 2694 3037 2901 3755 3393 3111 3857 3699 3640 3587 3618 3321 3236 3217 2974 3536 3930 4016 4023 4044 4052 4014 3686 2932 2864 2868 2888 2849 2739 2614 2491 2306
3071 3242 2967 2737 3488 3863 3894 3900 3625 3622 3270 3337 3397 2821 2729 2888 3010 3400 3612 3551 3495 3409 3373 2923 2688 2924 2063 2608 2204 2333 2574 2588 2282 2490 2404 2562 2292 1792 2088 1856 1874 1765 1335 1922 1606 1859 1382 1868 1917 1795 1943 2192 2941 2458 1716 2794 5284 2637 3280 3188 3642 3466 3551 3253 3249 3028 2676 2651 2731 2845 3130 3434 3652 3790 3795 3600 3148 2802 2790 2796 2768 2722 2629 2512 2343
3088 2948 2917 2968 3346 3818 3987 4161 4146 3644 3914 4028 3878 3325 3784 3462 3538 3247 3585 3390 3761 3723 3334 3097 2771 2962 3099 2833 2440 2482 2589 2263 2270 2431 2233 2209 2230 2131 2274 1755 1411 1806 2134 1417 1721 1863 2026 1548 2187 2338 2009 1514 2360 2771 1185 1021 3461 2946 3149 3320 3976 3878 3151 2804 2964 2668 2502 2300 2203 2392 2658 2646 3040 3046 2769 2690 2731 2762 2732 2722 2711 2655 2590 2492 2401
2736 2972 2679 2753 2639 3068 3996 4313 4838 4727 4220 4594 4043 4410 3994 3947 3686 3654 3581 3973 3366 3255 3246 3102 2905 2671 2646 2820 2965 2743 2607 2641 2614 2244 2393 2339 2545 2318 2580 2361 1675 1451 1380 2360 2275 1112 2097 2515 2100 2808 2664 2471 2367 2858 2845 2236 2504 2750 2863 4122 4751 3913 3522 2629 2561 2577 2456 2144 2044 2036 2206 2529 2891 3164 3238 2945 2918 2871 2723 2693 2635 2572 2508 2428 2322
2648 3075 2896 3137 3143 3254 3614 3821 4529 4752 4549 3679 3606 3811 4128 3780 3592 3635 3938 3510 3263 3099 3254 2579 2694 2940 2719 2669 2394 2713 2955 2399 2721 2577 2406 2315 2296 2414 2630 2484 2333 1427 1573 2131 1605 2389 1676 1770 1751 1926 2577 2804 2223 2046 2735 2527 2385 2547 2918 4031 3175 4452 3532 2339 2279 2164 2039 1816 1716 1873 2059 2184 2321 2468 2572 2709 2815 2924 2894 2634 2591 2501 2399 2294 2232
2767 2984 3005 3021 3175 3217 3529 3486 4268 4254 4003 3793 3740 3521 4105 3673 4022 3985 3966 3306 3050 3398 3336 2863 2617 2959 2686 2759 2463 2493 2976 2979 2848 2669 2872 2911 2501 2688 2659 2589 2622 2000 1907 1846 2440 1989 1636 1722 1936 2515 2213 2555 2432 1596 2182 2372 2416 2604 3028 2715 2841 3746 2388 2098 2377 2329 1940 1613 1484 1618 1616 1657 1882 2083 2332 2514 2522 2663 2917 2872 2507 2444 2356 2209 2080
2647 2488 2925 2695 3054 3280 3195 3187 4000 4203 4376 4145 3782 3660 3464 3367 3300 4184 3469 3417 3694 3729 3395 2861 2811 2684 2707 3040 2742 3171 3151 3353 2908 2817 3263 2921 2337 2794 2521 2595 3008 2371 2664 2678 3069 2235 1928 1534 1526 2515 2861 2724 2768 2368 2149 2254 2668 1926 1779 2138 1970 1632 1977 2344 2678 2553 1864 1399 1196 1056 1046 1205 1572 1879 2216 2236 2331 2487 2661 2695 2564 2444 2320 2162 2007
2015 2015 2437 2942 3130 2904 3378 3439 3484 3956 3969 3788 3866 3781 3757 3661 3582 3360 3330 3749 3688 3836 3664 3268 3094 2959 2742 2699 2802 3210 3547 3132 3133 3020 3420 3396 2930 2810 2861 3060 3277 3195 3044 2790 2880 1593 1440 1305 1531 1759 2200 2492 2213 1711 1809 1756 2887 2256 1837 2095 1873 1209 2398 2545 3188 2568 1731 1213 933 796 800 872 986 1086 1317 1596 1765 1972 2202 2425 2582 2508 2344 2134 1931
2411 2348 2604 2698 2930 3299 3372 3522 3582 3603 3917 3551 3787 4029 4081 3994 3752 3244 3417 3705 3773 3775 3898 3397 2999 2819 2848 2719 2981 2867 3136 3357 3354 2866 3538 3902 3653 3388 3383 3506 3421 3337 3130 2928 2800 2153 1402 1441 2141 1749 1504 2387 1856 1940 2002 1810 2288 1710 1982 2539 2371 2784 2911 4903 3556 2074 1539 1026 753 681 736 777 805 877 1202 1438 1532 1670 1886 2076 2321 2499 2407 2204 1968
2034 2405 2369 2350 2535 2614 2937 2815 3006 3184 3530 3409 3420 3904 4126 3718 3645 3111 3331 3916 3563 3732 3552 3418 3000 3332 3450 3134 3126 3075 3400 3700 3566 3518 3495 3835 3946 3796 3714 3822 3610 3525 3503 3274 3120 2508 2422 2009 2520 1812 2015 1855 1904 2136 2081 1746 2318 2420 1798 2070 2168 2744 2377 1108 1916 1466 1622 740 633 574 688 684 670 813 1080 1228 1324 1438 1609 2022 2277 2441 2439 2256 2053
2052 2313 2401 2330 2504 2500 2501 2835 2729 3183 3657 3648 3453 3661 3962 4310 3879 3262 3586 3499 3648 3660 3634 3744 3508 3488 3700 3476 3238 3355 3548 3594 3679 3600 3266 3134 3333 3449 3619 3802 3578 3629 3567 3580 3012 2964 2966 2682 2252 2506 1758 1932 1814 2044 1888 1585 1396 1539 1568 1533 1588 1142 912 802 639 1666 986 754 596 531 637 579 554 718 869 984 1024 1096 1240 1527 2003 2306 2332 2213 2012
1692 2051 2298 2141 2302 2591 2584 2643 2875 3176 3574 3574 3323 3346 3730 3994 3931 3302 3123 3245 3642 3460 3617 3805 3816 3349 3496 3539 3262 3394 3832 3813 3414 3310 2883 2577 2525 2616 2920 3035 3256 3233 3407 3449 3316 3036 2025 1625 2261 2497 2142 1939 1594 1920 1900 1950 1832 2097 1697 1683 1086 776 676 716 434 287 855 940 752 642 616 565 538 629 668 663 640 654 780 964 1221 1598 1830 1857 1742
1630 1765 2206 2083 2520 3064 2874 2991 3286 3344 3563 3610 3376 3392 3581 3774 3799 3390 2973 3422 3609 3611 3643 3742 3325 3523 3387 3306 3435 3268 3007 3071 3287 3045 2818 2993 2996 3072 3149 3185 3337 3158 3045 3292 3341 3109 3002 2946 2762 2507 2155 2131 1990 1747 1874 1759 2021 1787 2035 1491 1013 620 637 441 335 250 1442 819 839 863 699 620 570 662 641 566 556 559 582 623 728 960 1226 1311 1315
836 1924 2113 2429 2838 3301 3182 3298 3472 3389 3535 3376 3323 3415 3602 3540 3628 3808 3560 3611 3479 3536 3517 3328 3118 3072 2987 3192 3097 3054 3297 3242 2959 2883 2371 2609 2831 3171 3005 3003 3064 2709 2649 2664 2948 3131 2973 2878 2926 2586 2497 2287 2256 2106 1817 1586 1409 1557 1731 1764 1446 880 1037 711 310 128 303 462 780 861 797 753 832 918 934 811 755 738 655 600 438 551 739 835 888
385 1373 2381 2508 2902 3500 3126 3202 3264 3302 3258 3366 3497 3177 3142 3374 3536 3392 3445 3542 3721 3756 3653 3542 3344 3014 3005 2985 2690 2996 3125 2910 3046 2717 2748 3198 3018 2706 2472 2566 2619 2608 2562 2550 2671 2679 2697 2651 2569 2629 2536 2284 2031 1883 1707 1501 1283 979 1142 1352 1322 927 1110 1072 433 189 129 94 384 653 692 765 881 1080 1139 1071 968 947 898 731 594 294 0 222 844
417 712 1652 2272 2176 2832 2907 3000 3079 3286 3121 3418 3459 3440 2997 2882 2946 3081 3223 3347 3223 3367 3377 3408 3373 3244 3152 3160 3308 2695 2495 2371 2500 2603 2677 2317 2198 2270 2541 2574 2262 2171 2382 2352 2217 2367 2522 2558 2453 2130 1940 1558 1674 2082 1937 1923 1508 1311 1502 1394 1079 938 1225 1237 1182 792 466 409 780 900 919 1380 1211 1126 1330 1188 1088 1142 1240 1080 759 593 0 0 786
482 575 860 1226 1700 2029 2238 2283 2405 2828 3095 3010 3245 3445 3193 3010 2917 3024 2936 3130 3227 2949 3079 2621 2556 2776 2737 2592 2831 2494 2355 2511 2473 2495 2532 2575 2358 2223 2153 2435 2405 2304 2178 2110 1943 2132 2140 1934 1638 1398 1313 1192 1348 1359 1341 1712 2833 2568 1841 1448 1604 1541 1496 1950 2545 2365 1923 1709 1990 1480 1118 1111 1086 1179 1699 1239 1113 1334 1481 1468 1176 824 607 0 752
954 801 740 934 1213 1418 1526 1569 1726 2317 3006 3031 3264 3149 3083 2814 2789 2868 2780 2618 2617 2754 2664 2775 2413 2215 2290 2249 2018 2228 2436 2540 2548 2656 2565 2495 2630 2756 2562 2569 2664 2584 2469 2161 2153 2166 2203 1824 1523 1244 1525 1755 1820 1582 1266 1134 1090 1397 1183 1065 1288 1945 2416 2616 2312 2101 2335 2651 2299 1353 946 1385 1465 1628 1366 1232 1196 1501 1573 1646 1734 1297 945 787 703
1316 1035 802 714 1038 1410 1339 1460 1450 1941 2202 2477 2486 2730 2592 2536 2560 2560 2594 2562 2400 2315 2341 2262 2399 2435 2076 1906 1734 1614 1825 2271 3299 3806 3366 3205 2412 2119 2300 2525 2631 2445 2498 2441 2295 2334 2406 1832 1805 1824 1472 1360 1456 1272 661 699 860 814 888 1314 1783 1950 1626 1744 2088 2113 2217 1911 1853 1585 2179 2326 1784 1739 1820 1987 2150 2516 3353 1823 1839 1670 997 661 73
1770 1538 1416 1192 1340 1334 1588 1757 1592 1566 1660 1795 1955 1766 2079 2348 2706 2564 2458 2623 2540 2458 2488 2518 2220 2119 2116 1968 1576 1632 2767 2808 3433 3780 3050 2546 2360 2543 2743 2764 2855 2900 2652 2590 2404 2105 1849 2029 1763 1239 1061 780 609 603 586 595 428 416 562 1034 1295 1518 1935 2227 2506 2462 2299 2228 2321 2847 3124 2738 2082 2272 2323 2210 1809 3125 1583 1978 1652 989 858 588 212
2305 2416 2275 1974 1555 1485 1386 1429 1398 1109 1252 1637 1461 1446 1247 838 1609 1762 2132 2730 3035 3096 2879 2674 2636 2378 2301 2129 2137 1934 3471 4074 3534 2781 2834 2918 2885 2533 2236 2340 2883 2814 2668 2441 2097 2030 1799 1476 1188 1170 893 862 1042 987 807 268 155 288 662 1134 1351 1518 2015 2267 2360 2531 2394 2586 2803 2936 3132 3103 2844 2642 2477 2297 2038 1805 1300 1556 970 1067 917 804 626
2205 2331 2636 2656 2766 2489 1952 1778 1596 1404 1571 1367 1224 1048 882 714 1068 1776 1660 1823 2157 2548 2711 2689 2585 2427 2316 2057 1962 1759 1843 2216 2700 3373 3975 3635 2603 2654 2609 2422 2384 2322 2420 2686 2831 2712 2517 1893 1456 1181 887 755 731 870 421 270 560 966 1523 1805 2007 2150 2139 2110 2146 2078 2133 2118 2412 2796 2911 2824 2191 2188 2455 2217 1690 1640 1032 1588 1509 1412 1100 840 699
1898 2221 2587 2683 2812 2754 2611 2668 2350 2104 2246 1545 1268 1133 981 895 816 878 1513 1514 1526 1998 2222 2588 2738 2665 2758 2617 2386 1998 1562 3129 2380 2521 3220 3404 3948 2803 2567 2304 2040 1658 1259 1070 1116 2397 2838 2942 2634 2014 1786 1409 1507 1538 1392 2093 3017 2635 2648 2072 1806 1790 1893 2006 1952 1680 1970 2500 2552 2569 2296 2487 2442 1684 1432 1576 1607 1717 1600 1682 1762 1648 1286 1006 766
1920 2209 2592 2646 2747 2858 2650 2763 2863 2456 1809 1627 1358 1208 1140 1079 991 844 1781 2182 2049 1771 1920 2238 2311 2588 3092 3135 2899 2778 2922 3209 3520 3458 3796 3616 3647 3758 4261 4272 4412 4002 3178 2304 1724 1389 1480 1959 2359 2544 2688 2906 2834 3024 3144 3225 3340 3065 2616 2373 2582 2406 2268 2327 2452 2388 2459 2282 2626 2559 2807 2792 2014 1659 1628 1671 1242 1696 1716 2630 1737 1679 1539 1096 838
1649 2311 2432 2486 2482 2496 2345 2401 2385 1658 1438 1445 1414 1331 1240 1182 1092 825 1796 2700 2810 2390 2524 2706 2946 2717 2781 3018 3071 2844 3142 3815 3997 3219 2878 2820 3139 3173 3287 3289 2902 2745 3051 2853 3134 2868 2553 2016 2073 2386 2593 2648 2914 2878 2927 2928 2760 2829 2489 2761 2920 2830 2642 2604 2605 2582 2657 2513 2262 2053 2225 2376 2242 1625 1415 1584 1662 1684 1797 1960 1972 1973 1677 1154 772
1712 1783 1632 1857 1903 1888 2007 1920 1607 1375 1413 1277 1247 1169 1158 1164 1136 1431 2773 3080 2666 2786 3231 3180 3239 3455 3128 3000 3292 3124 3259 3466 2356 1945 1308 1659 2124 2494 2800 3029 3084 2522 1870 1403 1886 2062 2002 1791 1806 1829 1793 1820 1512 1464 1454 1353 1249 1440 1365 1435 1527 1870 2131 2016 2065 1840 1600 1382 1234 1428 1551 2078 2136 1672 1781 1650 1685 1913 1954 2416 1674 1712 1676 1351 1123
1447 1298 1148 1110 1272 1183 1264 1751 1705 1523 1335 1162 1084 1022 1017 1035 1120 2372 2844 2751 2925 2969 3059 3242 3086 3003 3078 2750 2999 3144 2893 2248 1922 1557 1298 970 2184 2640 2896 2810 2605 2602 2559 2240 1657 1369 1515 1598 1568 1496 1441 1380 1327 1194 1085 1021 982 917 894 959 1201 1322 1401 1564 1708 1678 1679 1524 1522 1581 1418 1808 1983 1885 1776 1959 2194 2201 2342 1912 2421 1561 1674 1802 1807
1018 925 860 833 806 765 795 887 1030 1123 1128 1068 993 1060 1141 1089 1060 2102 2582 2456 2575 2686 2769 2506 2719 2715 2287 1743 1989 2214 1886 1620 1513 1356 1053 908 1934 2245 2110 2268 2088 1786 2144 1645 1707 1564 1380 1260 1580 1690 1648 1666 1732 1612 1556 1523 1468 1306 1085 1087 1319 1343 1382 1499 1568 1694 1956 2063 2109 1237 1877 2019 1847 2043 2165 2034 2002 2183 1788 1670 1695 1650 1988 1936 2050
523 528 748 645 543 566 610 666 778 761 771 797 807 826 881 975 1025 1467 1980 2133 2138 2253 2302 2341 2334 2218 1692 1504 1248 1156 1109 1011 984 1001 953 922 1159 1578 1797 1725 1900 2012 1991 1738 1928 1689 1798 1821 1955 2866 3095 2299 2504 2242 2038 1889 1846 1749 1614 1488 1220 1368 1548 1678 1826 2132 2110 2070 1910 2518 2715 2586 2342 2224 2205 1846 1887 1951 2098 2117 1919 2504 2419 2447 3349
Wind_Speed
4 4 6 7 10 12 12 13 13 14 15 15 16 17 18 20 20 19 19 18 18 15 16 14 13 12 13 11 11 11 14 14 14 15 14 14 15 13 19 22 26 28 28 29 30 30 29 29 29 28 28 28 27 26 27 27 28 28 29 30 30 29 29 29 28 27 28 28 27 27 28 28 28 28 28 28 27 27 27 27 27 28 28 28 28
6 5 5 6 8 10 12 12 13 15 15 16 18 19 19 20 21 20 18 17 17 17 19 16 13 12 14 11 14 11 13 13 14 14 13 13 14 14 19 22 26 27 29 30 30 30 30 30 29 29 29 29 28 28 28 28 29 30 31 31 32 32 32 30 30 30 30 30 29 29 29 29 29 29 28 28 27 27 28 29 29 30 30 30 31
6 6 6 7 8 10 12 12 14 15 17 16 18 20 21 22 21 21 18 17 18 17 18 14 14 12 13 12 12 13 13 15 14 14 11 13 14 17 17 22 26 28 29 29 30 30 29 29 29 28 29 29 29 29 29 29 30 31 32 33 33 34 33 32 32 32 31 31 30 29 29 29 29 29 29 29 29 29 29 29 30 30 30 31 32
7 8 8 9 10 11 12 13 14 14 16 17 18 18 19 20 20 19 19 18 18 17 18 15 14 12 12 12 13 14 14 15 14 11 12 12 15 17 18 19 24 27 28 29 29 29 28 29 28 29 28 29 29 29 30 30 31 32 33 33 33 33 33 33 33 32 32 31 30 29 29 29 28 29 29 28 28 28 28 29 30 31 30 31 32
8 9 9 10 11 11 11 12 13 14 15 15 16 17 17 17 18 18 18 16 17 17 17 13 13 15 14 12 14 14 13 13 13 14 12 13 14 17 18 20 19 22 26 27 28 28 28 28 28 28 28 28 28 29 30 30 31 32 32 33 33 33 33 33 32 32 31 30 30 29 29 28 26 26 26 27 27 27 27 28 28 28 27 29 31
8 9 10 9 10 11 11 11 12 14 14 16 15 15 15 17 17 16 17 17 16 17 16 15 13 13 13 13 14 14 14 12 13 11 15 14 15 17 18 18 19 18 18 23 24 26 27 27 27 27 26 27 27 28 29 29 29 29 30 30 30 31 31 30 29 30 30 29 28 28 28 25 23 24 24 24 25 24 25 26 26 25 25 27 28
8 9 10 9 9 9 9 10 12 14 13 13 15 13 15 15 16 17 16 16 15 16 17 15 13 12 14 16 15 13 14 11 13 13 13 14 17 17 18 19 18 18 17 16 19 23 22 24 25 25 25 25 26 26 26 26 25 25 25 25 25 25 25 24 24 25 26 26 26 26 24 21 21 20 20 20 21 21 21 22 21 20 20 20 21
7 9 8 9 8 7 8 9 11 12 12 13 15 12 13 14 16 16 14 17 16 14 15 15 15 13 13 14 13 14 12 12 13 15 12 16 16 17 18 17 18 16 17 16 15 12 20 21 22 23 23 23 23 23 23 22 21 20 20 19 20 21 20 21 20 21 21 22 22 21 19 18 17 17 18 18 18 18 18 18 19 19 19 20 22
7 8 8 7 7 6 6 7 9 10 12 12 11 12 14 10 13 15 15 16 16 15 14 14 13 14 13 12 12 13 13 12 13 13 13 15 16 15 16 15 15 15 14 12 13 12 15 18 20 20 21 21 20 20 19 18 17 16 16 16 16 17 16 16 17 18 18 17 16 15 15 16 17 17 17 16 15 15 16 16 17 16 17 18 21
7 8 9 7 7 7 5 6 7 9 10 9 10 11 12 13 12 14 15 16 16 17 16 16 15 14 14 12 13 13 11 12 11 14 13 14 14 14 16 16 15 13 12 12 11 11 11 14 17 19 18 17 17 17 16 16 14 13 13 13 14 14 13 13 14 14 13 14 14 14 14 15 15 15 16 15 15 15 15 15 16 16 17 18 21
7 8 8 7 6 5 5 7 6 7 9 9 8 9 13 13 15 13 15 15 16 16 17 18 15 17 13 12 11 11 12 11 12 13 15 16 15 14 12 14 14 11 9 10 9 9 10 11 9 9 10 14 13 14 14 14 13 12 12 11 11 11 11 11 10 10 12 13 13 13 13 14 14 14 15 15 15 16 16 16 16 17 17 19 21
7 7 8 8 8 6 6 7 7 7 8 8 8 9 11 13 14 16 15 13 13 15 16 17 14 15 15 13 11 10 11 11 12 12 13 13 13 17 15 11 12 12 10 8 9 9 8 8 9 7 6 9 12 13 14 13 12 10 11 9 9 10 10 10 9 10 12 13 13 14 13 14 14 15 15 15 16 17 17 17 17 17 17 19 20
6 7 7 8 9 8 8 8 8 7 8 7 8 9 11 13 11 15 15 14 14 15 15 16 15 11 13 12 9 10 7 10 13 11 11 12 12 14 15 14 11 9 9 9 9 9 6 6 6 5 5 6 10 14 13 12 10 8 9 8 8 9 9 9 9 9 11 12 13 14 14 15 15 15 15 16 17 17 17 17 17 17 18 18 20
6 6 7 8 8 9 9 8 9 8 8 8 8 9 10 11 12 12 12 14 13 17 17 18 12 13 12 10 9 10 10 11 11 10 9 8 7 8 12 14 12 11 10 8 7 7 5 4 5 2 4 4 5 5 9 13 12 7 8 9 9 9 9 9 9 9 11 12 12 14 14 15 15 16 16 18 18 18 18 18 18 17 17 17 18
6 6 6 7 7 8 8 7 9 8 9 9 8 9 10 11 11 12 14 10 12 14 15 21 14 11 12 12 10 6 8 9 11 11 12 8 8 11 14 13 16 15 14 9 8 8 7 5 3 3 2 4 4 5 6 5 7 11 11 10 10 11 10 10 10 10 11 12 13 14 14 15 15 16 18 19 20 19 19 19 18 16 16 16 17
4 5 4 5 6 7 7 7 7 7 8 8 8 8 9 10 11 10 13 13 12 14 16 15 18 16 11 13 11 11 6 9 8 10 9 12 13 14 12 9 13 10 10 11 12 11 7 5 3 1 2 2 3 5 5 4 10 15 14 12 13 12 13 12 12 12 12 12 13 14 14 15 16 17 18 20 21 21 20 19 17 16 15 14 15
3 3 4 3 4 6 6 6 6 7 7 7 7 7 9 8 10 10 12 15 14 13 15 16 15 17 15 13 8 10 12 10 9 12 12 8 9 6 6 10 10 9 9 10 6 9 7 5 3 1 2 3 4 4 3 4 6 5 11 15 13 13 14 15 14 13 14 14 14 15 15 16 16 17 19 20 21 22 21 19 18 16 14 13 15
2 3 3 3 2 3 5 5 4 4 6 7 6 6 7 9 8 11 9 11 15 15 14 13 15 13 12 13 15 15 12 13 11 7 12 13 7 10 10 8 3 5 7 7 9 13 11 4 2 3 2 0 1 1 3 3 4 6 6 6 9 12 14 15 16 15 15 15 15 16 17 16 17 18 20 21 22 22 22 20 19 17 14 13 14
0 1 2 3 2 2 3 4 4 3 4 5 6 8 5 7 9 9 11 12 13 13 15 13 15 14 15 15 14 15 13 12 11 8 7 9 11 6 5 8 12 12 10 9 8 9 10 6 10 8 4 4 4 6 3 3 4 8 10 8 10 11 12 14 15 16 15 15 16 17 17 17 17 20 22 23 23 23 22 21 20 17 14 13 14
2 2 2 2 2 2 2 3 3 4 4 5 6 7 7 7 9 9 10 11 12 14 16 16 13 13 16 17 13 13 12 12 13 12 11 7 5 11 9 8 10 11 11 10 9 10 3 9 1 6 10 7 7 4 6 7 6 5 5 14 11 10 11 12 13 15 15 14 15 16 16 16 17 20 23 24 24 24 23 22 20 18 15 13 14
3 3 1 3 2 2 3 3 3 3 4 4 5 4 5 7 7 8 9 10 12 13 14 14 17 14 14 15 16 14 11 10 9 11 11 11 8 6 9 8 8 6 8 9 9 11 11 5 5 6 5 4 4 1 2 4 7 5 2 5 5 8 9 10 10 12 14 15 15 15 15 16 17 20 23 24 25 25 24 23 22 20 16 14 15
4 3 3 2 2 3 2 3 3 3 5 6 6 5 5 5 7 8 10 11 12 12 13 13 14 16 14 14 14 13 12 9 8 9 8 8 8 9 8 7 3 8 6 11 10 8 7 7 5 9 7 4 3 3 2 5 7 3 4 7 5 7 7 8 9 11 13 14 14 14 15 16 17 20 24 25 26 25 25 24 23 22 19 16 16
5 5 3 3 4 4 3 3 4 4 4 3 4 4 3 4 5 7 8 10 11 13 13 12 12 13 13 11 12 11 11 11 10 10 9 7 9 9 7 9 11 8 8 7 2 8 5 3 3 10 4 7 4 5 3 10 3 2 7 8 7 6 6 6 9 10 11 12 13 14 15 15 18 21 24 25 26 26 26 26 25 23 21 18 17
5 6 5 4 6 4 4 5 4 3 2 3 4 5 6 6 6 6 7 8 10 11 14 14 14 10 12 11 10 10 10 9 10 7 8 9 8 7 6 5 6 8 10 7 7 3 3 5 5 5 3 3 4 2 8 12 5 5 5 2 8 5 5 6 7 7 9 11 13 14 14 15 18 21 23 25 26 26 26 26 26 25 23 20 19
6 5 6 5 6 5 4 4 4 3 5 6 5 5 7 8 8 7 7 7 8 10 10 11 12 14 13 12 11 11 10 9 9 10 11 7 6 5 8 9 6 3 7 5 4 4 5 4 4 4 5 3 1 2 4 10 1 4 5 2 11 6 6 5 6 7 8 10 12 13 14 16 19 21 23 25 26 27 27 26 27 25 24 22 20
7 6 5 5 4 6 5 4 5 4 4 4 4 5 6 8 8 8 7 8 8 8 8 9 9 8 9 11 11 10 10 10 9 6 6 6 6 7 8 6 6 6 3 4 4 2 4 4 2 5 3 1 3 2 3 7 3 3 5 8 12 10 7 4 5 6 8 9 10 12 14 16 17 19 20 23 25 26 27 28 28 26 25 23 22
6 6 6 5 5 5 5 4 5 4 4 3 4 4 5 6 8 8 9 8 8 9 8 8 9 10 9 8 10 9 10 8 7 8 7 7 8 8 8 7 7 6 5 3 3 1 3 2 1 5 3 1 3 4 3 6 2 3 8 6 1 14 7 4 5 6 7 8 9 11 12 14 15 17 19 20 23 25 25 27 28 28 26 24 23
7 7 5 4 4 4 4 4 5 4 3 3 3 4 5 6 7 8 7 8 8 8 7 7 7 8 8 8 7 8 9 9 9 8 8 8 8 7 7 7 8 8 9 5 5 4 4 2 4 5 3 3 1 4 4 8 1 6 8 2 1 6 7 3 5 7 7 7 9 10 10 11 13 14 16 19 20 23 24 25 28 29 27 27 25
7 6 5 5 5 4 5 5 6 5 4 4 4 4 4 5 5 7 7 9 9 8 8 8 8 8 7 8 6 6 6 7 6 6 8 7 7 7 7 7 8 7 6 5 6 5 5 4 3 6 5 2 2 3 3 3 3 3 3 2 1 2 5 6 7 7 7 6 7 8 9 10 10 12 12 14 16 20 23 25 26 29 29 28 27
7 10 9 7 7 5 6 6 6 6 6 5 5 4 4 4 5 6 7 9 9 8 8 8 8 6 7 7 7 6 6 4 3 5 6 5 5 6 7 8 6 5 5 4 5 4 4 4 3 5 5 2 2 1 2 4 10 4 3 2 2 4 8 10 9 7 6 5 5 7 8 9 9 10 10 11 15 18 21 23 24 27 29 29 28
9 9 9 9 8 8 7 6 6 5 6 5 6 5 4 4 5 4 5 6 7 8 7 7 6 8 7 6 7 5 5 5 6 4 7 6 5 6 6 6 5 4 3 3 1 4 2 0 2 4 2 3 2 2 2 3 5 4 4 3 2 5 12 10 11 9 5 3 4 6 7 8 9 10 10 11 14 17 20 22 23 25 28 29 28
10 9 8 9 9 8 7 7 8 7 6 6 5 6 4 4 4 4 8 6 6 6 7 8 8 10 8 6 6 5 5 5 5 5 4 4 5 5 5 5 4 3 3 3 1 2 2 3 4 2 2 4 1 3 3 3 3 9 5 3 3 6 5 3 13 11 8 2 2 5 6 7 9 10 10 12 13 15 18 20 21 23 25 27 27
12 11 9 9 9 9 9 9 9 10 9 8 7 7 6 5 4 4 6 5 5 5 5 6 8 8 8 8 7 6 5 5 4 4 5 4 2 2 3 3 2 3 3 3 2 1 1 2 1 2 4 3 3 4 3 3 5 6 6 5 4 4 3 2 3 14 10 5 3 4 4 6 8 9 10 11 12 13 15 17 19 21 22 24 26
11 11 10 9 9 9 9 10 10 10 10 9 7 7 6 6 4 4 4 4 4 5 6 6 6 7 8 7 7 6 6 5 5 4 4 4 4 5 5 4 4 4 6 4 4 2 2 2 3 3 2 5 2 4 4 4 5 4 6 5 4 4 3 3 2 3 13 7 2 3 4 6 8 9 10 10 11 11 13 15 17 18 19 21 24
12 11 12 10 12 11 10 11 12 11 11 10 9 8 8 7 6 6 6 6 5 4 5 5 5 6 6 6 6 6 7 8 8 7 6 7 7 7 5 5 4 4 5 6 5 4 3 2 3 3 5 6 3 3 2 2 2 2 3 3 4 4 4 3 2 2 15 5 4 3 5 6 7 8 9 9 9 9 11 14 16 17 18 20 22
10 12 11 12 13 12 11 11 12 11 12 10 10 10 9 8 7 6 5 5 5 4 5 5 5 5 5 6 6 6 8 8 7 8 8 8 8 8 7 7 6 6 6 6 6 5 5 2 2 3 5 5 3 3 3 2 2 3 1 3 2 4 4 3 2 2 7 7 8 9 7 6 8 8 9 9 9 8 9 14 17 18 18 19 20
8 11 13 12 13 13 12 12 12 11 11 11 11 10 10 10 8 6 6 5 4 4 4 5 6 5 5 5 6 6 6 6 6 6 8 9 9 8 7 8 7 7 7 6 5 4 4 3 2 2 3 3 4 3 3 3 3 2 3 3 5 4 5 4 2 2 4 nan 12 10 8 9 10 10 11 10 10 11 11 14 18 20 nan 20 20
10 10 12 13 13 13 12 12 12 12 12 12 12 11 10 10 9 7 6 5 5 5 5 5 6 6 6 6 7 6 6 6 7 8 9 7 6 5 7 7 7 6 5 3 3 4 3 3 2 1 1 3 4 4 2 3 2 3 4 5 5 5 6 6 4 2 4 6 6 2 5 9 11 13 13 13 14 13 14 14 19 21 nan nan 20
13 11 11 12 13 13 14 13 12 12 12 12 13 12 10 9 9 8 6 6 6 6 6 7 7 7 7 7 8 7 6 5 6 6 7 6 6 6 5 5 4 5 4 4 4 3 3 3 3 3 2 3 3 1 3 3 3 3 4 6 6 5 5 6 3 3 6 7 6 5 5 3 5 6 7 14 17 17 15 16 18 22 22 nan 22
16 15 13 12 13 13 14 14 14 14 14 13 13 12 10 10 10 9 8 7 6 7 7 8 8 8 9 8 8 8 8 7 6 6 6 6 6 5 5 5 5 4 4 4 4 4 4 4 4 4 5 4 4 3 2 3 2 3 5 7 6 6 5 5 1 6 6 3 3 6 3 4 7 13 17 18 20 19 19 19 21 22 23 22 23
17 17 16 14 13 14 14 15 15 15 14 14 14 14 12 12 10 9 9 8 8 8 8 7 8 9 9 9 9 8 11 15 12 8 8 9 7 5 4 4 4 5 4 5 5 5 5 4 5 6 5 6 6 5 4 4 3 4 6 5 6 5 6 5 2 2 4 4 1 3 5 5 2 2 3 4 10 20 22 24 19 26 23 23 nan
18 18 19 19 16 16 15 16 16 14 15 14 19 27 21 16 13 12 11 10 9 9 9 9 8 8 9 8 9 16 17 12 10 9 7 6 7 5 6 7 6 6 6 6 5 6 6 6 6 6 6 6 7 7 6 5 3 3 4 6 5 6 5 5 5 5 2 3 3 4 3 1 1 4 7 8 8 12 9 17 11 12 21 23 23
20 20 18 18 17 17 16 15 15 15 14 25 31 28 23 19 15 12 12 11 10 10 9 10 10 9 9 10 9 13 16 14 11 10 7 8 8 8 6 5 5 5 6 6 7 7 7 6 7 7 6 7 7 8 7 5 5 5 5 4 4 5 5 5 6 8 8 4 2 5 7 6 6 8 10 10 11 11 12 17 21 18 21 23 22
24 21 19 17 18 19 18 17 15 14 20 29 28 27 20 19 16 14 13 12 11 11 11 11 12 11 11 11 11 11 11 12 12 12 12 11 10 9 9 8 9 7 5 6 8 8 7 6 6 7 7 7 7 8 7 6 7 6 5 4 4 5 5 5 6 8 10 7 3 4 7 9 8 8 11 13 12 11 13 19 21 19 18 21 22
28 24 22 20 19 21 20 19 18 16 24 29 29 27 23 18 16 14 14 12 12 12 12 12 12 13 14 14 13 14 14 23 14 10 11 12 14 13 10 10 9 8 9 8 7 7 7 7 6 6 8 7 6 7 9 8 8 6 6 5 5 5 6 6 6 9 10 9 4 4 6 10 9 9 10 11 11 12 15 26 24 21 19 19 21
29 28 24 23 22 22 23 22 21 21 28 30 28 25 24 22 19 16 15 13 13 12 12 12 13 14 16 15 16 16 15 16 15 14 14 13 13 12 12 12 12 13 15 13 12 11 10 8 8 8 10 10 8 8 9 9 7 6 5 4 6 6 6 6 8 8 8 9 6 6 6 9 9 8 10 12 13 15 15 25 28 23 19 18 21
29 32 30 26 25 24 23 24 22 26 30 31 28 25 25 22 23 18 16 16 16 15 14 15 15 14 16 16 16 16 17 17 22 23 19 16 15 14 12 12 11 11 12 13 14 15 16 14 11 10 10 11 10 9 11 12 9 8 7 6 7 6 5 5 6 7 8 10 8 6 4 7 8 7 9 12 12 14 14 24 29 26 22 20 22
28 35 34 28 26 25 24 25 23 30 32 35 30 27 26 25 23 19 20 21 19 18 20 19 19 20 19 19 19 19 18 23 26 28 24 19 17 15 14 14 13 13 13 14 15 15 11 10 11 10 11 15 18 13 14 14 14 10 8 7 8 8 5 5 6 9 9 12 11 7 6 8 10 7 9 11 13 13 17 15 25 28 27 24 23
29 31 32 30 28 26 28 26 26 31 33 37 35 33 31 29 23 23 24 23 22 21 22 24 22 22 21 22 21 19 22 28 27 27 26 20 18 17 17 16 16 17 16 16 19 18 14 15 13 9 8 6 5 7 8 9 14 14 12 10 10 9 6 6 7 9 10 14 14 10 7 8 11 11 10 12 13 15 16 18 21 31 28 27 24
24 27 31 32 31 31 29 29 28 31 33 37 38 37 35 33 28 26 26 24 24 24 24 23 24 23 29 31 24 24 27 28 28 28 25 20 18 17 17 17 17 16 17 18 19 21 19 16 16 14 13 11 9 9 9 10 10 17 15 12 10 11 8 8 9 10 11 14 16 15 14 14 14 14 13 12 14 17 18 20 21 26 32 25 26
24 28 29 29 30 31 33 35 37 33 33 36 38 38 38 37 32 25 27 25 24 25 25 26 25 28 28 33 37 34 31 30 30 28 25 24 21 19 19 18 18 18 20 20 22 22 21 21 19 19 18 18 18 18 18 17 16 20 18 14 12 12 10 10 11 11 10 15 21 25 19 17 17 18 18 16 13 16 20 21 23 23 22 18 19
Wind_Direction
101 109 115 120 119 116 115 119 120 120 118 123 126 127 129 128 128 128 126 124 120 124 117 120 110 117 117 110 110 108 113 113 111 105 107 101 96 78 76 85 96 99 100 101 101 101 100 99 100 98 98 97 96 93 89 87 87 87 89 88 87 86 86 84 83 79 76 75 73 70 69 68 67 65 63 61 60 58 58 57 55 53 51 48 44
131 121 114 110 109 115 118 121 126 124 128 131 133 133 135 134 132 131 130 128 127 124 122 123 129 127 124 119 112 111 102 107 107 105 99 95 98 90 75 88 94 97 97 97 98 99 100 100 98 96 94 94 94 93 92 91 89 89 88 88 87 85 84 82 80 77 74 71 68 66 65 66 65 64 64 63 62 60 59 58 56 54 52 49 45
123 118 110 111 116 119 124 124 127 131 129 131 133 136 137 137 135 131 131 130 125 124 121 123 119 121 118 114 109 106 113 107 95 89 87 98 102 101 89 83 91 92 94 94 95 95 95 96 95 94 93 91 89 88 86 84 84 83 83 82 81 81 81 79 78 76 74 71 68 67 65 64 64 64 63 62 61 59 59 60 59 57 53 52 50
128 125 127 125 127 128 128 129 131 129 130 133 134 135 136 133 133 130 128 130 123 119 118 122 121 118 109 119 112 110 105 103 100 108 105 102 102 107 108 98 84 89 90 92 93 93 93 91 91 91 91 90 88 86 84 82 81 80 80 79 79 79 78 77 75 74 72 70 68 66 64 63 63 64 64 64 64 61 61 61 59 58 56 55 54
132 132 127 131 131 126 129 131 129 128 129 132 130 127 130 128 130 128 129 126 126 118 112 118 127 124 119 115 115 112 109 104 100 92 102 96 106 114 118 117 107 78 85 89 88 90 88 88 88 88 88 87 86 84 82 81 80 80 79 78 78 78 77 75 75 74 72 69 67 65 64 63 65 68 66 61 59 56 55 57 58 56 53 53 52
129 125 118 119 122 126 128 127 126 126 124 121 121 128 131 133 133 131 130 130 128 125 126 124 120 117 122 115 112 119 110 105 106 106 102 114 122 117 116 114 113 110 98 77 84 83 84 84 84 84 85 85 85 83 81 81 81 81 80 80 80 79 80 81 78 73 70 67 66 63 63 64 64 60 59 58 55 53 53 54 55 55 52 51 49
127 119 121 114 109 119 123 127 126 121 122 122 120 125 130 132 134 134 138 133 130 131 133 131 124 124 125 123 121 119 116 114 113 106 108 119 118 123 121 118 118 117 114 106 71 75 78 79 80 81 82 83 83 83 83 83 82 82 83 85 85 84 82 79 76 71 68 64 62 60 60 61 54 52 50 49 49 46 46 50 53 50 48 45 42
119 112 106 107 115 113 125 125 118 122 124 121 116 123 122 131 135 135 141 135 131 132 134 129 130 129 121 110 117 114 110 116 103 110 122 115 124 123 120 121 119 124 124 117 115 80 66 73 77 78 80 80 81 82 84 84 82 82 83 85 83 81 80 77 73 69 64 61 59 56 53 49 44 39 36 37 40 40 42 44 44 45 42 37 38
115 108 103 105 110 105 100 108 115 120 112 110 116 125 125 128 129 134 138 136 141 143 134 126 123 121 112 118 128 123 124 112 114 116 120 120 115 118 121 122 122 113 107 109 104 107 62 69 71 75 77 77 79 80 82 82 81 82 81 81 80 78 77 73 69 63 59 56 53 47 38 34 31 30 31 33 34 34 36 37 42 44 41 36 38
114 114 121 122 120 126 122 104 102 105 108 111 117 123 123 129 133 138 140 143 145 146 144 134 131 122 125 131 125 123 116 108 119 115 119 122 125 130 128 131 124 130 132 130 124 111 105 61 64 66 66 68 69 71 75 78 80 82 81 79 77 75 73 66 62 57 52 43 37 34 29 25 23 23 23 24 24 27 31 34 38 41 39 37 39
115 114 114 113 109 111 103 100 99 101 105 99 116 126 129 133 136 141 136 145 145 147 146 134 132 132 133 134 130 122 122 124 115 123 129 135 143 128 131 130 129 124 126 111 106 106 109 117 95 85 53 48 60 63 69 73 78 80 81 80 77 75 67 59 53 47 41 32 29 25 21 17 16 16 17 17 19 22 25 28 32 35 36 37 40
112 115 118 119 116 109 110 95 106 107 112 119 122 127 132 132 140 138 141 137 146 144 146 137 140 142 137 132 135 132 133 129 121 124 127 126 136 139 138 134 132 134 129 120 127 118 116 111 99 97 97 28 45 51 54 65 72 76 79 76 74 67 56 49 45 37 32 27 23 19 14 13 12 12 14 15 19 22 22 24 28 33 35 37 40
111 110 115 117 116 118 108 110 102 109 108 113 124 134 131 127 132 129 137 145 152 150 155 146 140 143 135 139 142 129 144 127 127 126 126 135 150 137 146 135 138 135 134 146 133 137 115 109 102 100 99 95 39 32 40 46 48 68 70 71 65 58 51 47 41 33 27 23 19 17 13 12 9 9 13 16 19 23 23 23 26 29 34 36 38
110 109 112 111 112 112 110 106 109 104 105 104 110 116 122 131 135 130 137 152 157 160 162 137 144 151 135 141 149 156 146 130 125 140 134 153 134 146 131 135 155 158 158 153 148 118 122 117 114 112 97 85 97 77 49 31 24 40 54 56 58 52 51 45 43 36 27 22 20 17 15 13 9 8 14 17 20 23 25 26 26 29 33 35 37
102 104 106 107 111 112 105 106 105 101 92 87 97 113 125 132 135 147 142 144 158 164 166 156 157 154 149 137 144 139 152 145 146 152 158 162 160 174 145 176 168 175 157 169 170 168 155 152 135 97 74 93 99 78 54 28 29 39 36 37 39 48 47 43 39 35 32 25 20 20 18 15 12 12 15 21 22 25 28 29 30 31 32 35 34
93 97 110 110 108 104 109 110 101 104 100 99 103 113 120 127 140 154 142 147 161 168 164 170 162 150 151 154 151 147 142 154 150 149 167 170 168 186 167 194 168 176 150 179 192 155 174 164 175 69 75 92 91 77 54 61 17 32 27 25 32 37 40 37 33 31 29 27 22 22 23 17 16 18 20 24 28 28 33 33 32 32 34 33 32
104 117 129 120 119 118 118 114 114 108 103 94 104 120 125 135 142 143 154 153 158 163 167 166 175 167 161 146 155 156 163 156 168 155 160 170 179 195 149 175 208 178 183 180 182 164 175 187 196 223 39 24 32 61 61 51 28 52 24 18 23 34 33 31 30 28 26 26 25 23 22 19 18 23 25 28 32 33 35 37 34 35 33 31 29
113 132 162 142 133 132 120 117 113 116 118 133 136 122 111 124 143 144 158 161 156 160 167 170 170 169 170 176 168 168 162 154 144 165 154 153 170 181 183 164 203 197 153 240 187 203 169 183 212 245 176 208 6 24 65 27 47 40 56 16 28 36 33 29 30 30 26 26 27 24 22 20 21 25 30 32 36 37 36 37 37 35 32 27 25
16 140 178 165 158 151 136 116 132 135 134 127 115 116 143 141 142 151 158 162 162 165 160 176 171 167 177 176 176 169 172 163 167 143 159 163 151 161 212 176 181 189 185 186 245 239 193 176 201 180 204 165 209 203 156 120 39 34 38 46 40 43 38 32 32 31 29 28 30 26 23 23 24 26 31 36 39 38 37 38 37 36 31 24 21
213 222 163 169 168 169 156 154 148 163 152 136 137 147 161 152 149 154 156 158 166 170 169 170 169 179 181 170 179 181 172 172 177 164 158 178 149 159 199 202 194 195 171 184 201 243 244 180 198 243 200 183 195 208 213 144 135 115 49 15 31 42 42 39 36 31 31 35 34 31 28 27 29 30 32 38 39 38 38 38 38 36 31 23 17
227 230 216 183 181 191 185 176 176 163 144 142 135 175 155 165 153 150 150 158 166 177 170 174 165 187 184 182 178 173 178 180 178 163 173 167 179 171 179 207 204 209 205 178 199 204 216 275 108 242 290 225 242 191 236 116 124 99 319 337 50 40 44 46 42 39 37 38 40 38 35 33 32 34 37 39 40 38 38 39 38 35 31 21 15
267 246 240 216 207 214 206 205 182 175 154 173 167 175 166 162 158 159 164 163 168 166 170 178 175 175 186 185 183 184 174 182 180 179 189 173 165 166 184 182 196 223 185 236 177 252 224 172 185 245 204 247 196 186 146 137 99 106 126 121 72 53 50 48 45 43 42 45 48 47 45 40 35 38 39 39 39 39 37 39 38 33 32 23 14
249 268 265 269 255 221 203 237 199 209 167 161 152 157 168 167 185 185 165 163 165 171 167 171 178 176 175 193 177 188 194 185 192 192 185 184 185 174 193 194 175 206 224 245 171 215 186 244 270 248 261 230 172 165 139 88 80 205 114 59 44 44 51 53 50 45 49 54 57 59 52 48 42 38 40 40 39 39 37 36 36 32 29 25 16
237 243 251 261 256 232 213 216 216 195 191 165 180 176 172 183 193 189 185 176 171 169 171 175 170 185 169 192 189 190 207 182 199 213 209 204 187 190 185 202 194 174 220 190 200 224 165 208 218 283 287 280 278 52 112 109 314 233 124 349 19 20 36 50 54 55 57 64 64 62 57 52 46 40 38 39 39 38 38 35 34 31 26 24 18
243 245 259 251 258 243 225 219 229 217 202 195 189 182 180 173 196 186 202 188 184 180 177 177 179 179 181 189 186 196 210 205 203 198 224 217 203 193 191 203 170 176 245 169 211 151 277 152 251 220 250 176 157 282 112 112 111 221 116 17 355 348 10 35 55 59 67 67 67 66 57 48 44 38 34 33 35 35 36 35 32 30 24 22 19
249 240 228 260 257 256 247 229 228 227 222 210 189 189 188 178 189 193 196 212 198 194 184 186 185 183 185 182 181 201 200 210 219 211 217 224 217 213 218 200 185 206 178 223 222 184 235 249 217 272 243 237 139 138 84 90 101 204 116 87 340 339 349 30 50 71 75 77 75 69 62 53 49 44 37 33 33 34 34 32 31 30 25 21 19
237 238 231 240 248 243 244 227 244 232 226 214 208 200 197 190 188 190 193 210 209 201 199 196 199 207 197 192 191 180 208 204 201 217 216 215 222 219 219 192 198 210 217 216 191 214 211 213 298 239 247 204 177 116 117 113 267 192 105 67 339 336 354 358 77 79 85 87 82 75 68 59 53 44 37 35 33 35 36 33 30 28 25 22 21
230 231 237 240 243 241 248 253 247 249 242 225 203 207 216 198 197 192 189 210 214 217 208 210 212 217 211 213 201 191 201 200 202 210 218 215 221 219 217 213 198 201 217 187 197 202 248 197 257 300 250 200 242 71 65 91 227 150 71 78 78 350 316 165 97 86 92 92 84 80 74 68 57 47 37 32 32 34 38 38 32 28 27 23 22
225 233 234 241 238 234 226 236 257 245 248 243 222 217 211 201 208 210 194 201 212 213 209 215 213 215 229 234 223 218 211 212 203 206 236 217 207 213 225 219 224 206 215 199 213 189 204 207 166 281 258 233 63 76 83 115 247 157 145 114 131 115 201 126 97 81 88 86 88 83 78 70 64 51 44 32 29 32 37 39 36 27 26 25 25
219 216 225 238 240 235 235 232 237 244 240 249 254 237 222 203 216 208 207 207 207 208 210 208 216 224 229 227 237 234 235 226 234 220 238 230 213 218 220 233 240 229 221 205 213 195 202 190 168 241 268 247 107 142 190 138 297 140 167 162 156 189 134 108 78 65 67 78 94 94 83 77 68 60 55 42 31 32 35 38 38 29 26 24 24
230 220 212 224 234 240 233 239 246 245 253 252 258 252 240 216 217 205 233 221 212 211 211 219 218 228 226 225 236 236 234 221 213 199 233 228 231 230 230 236 246 237 224 227 195 261 242 129 199 225 217 260 199 195 191 140 291 207 171 168 174 154 110 81 43 23 32 62 111 108 95 84 76 70 66 58 42 32 31 33 34 32 26 22 22
234 234 218 221 231 234 246 240 242 246 249 247 256 263 247 223 214 202 238 233 213 211 206 216 217 231 229 226 229 222 225 224 218 210 219 242 224 220 233 238 246 260 256 250 235 179 202 171 191 168 221 223 222 225 200 132 295 348 172 146 166 74 78 173 353 3 352 25 146 130 102 88 81 71 67 66 54 38 32 30 30 29 26 21 18
233 236 234 227 230 231 225 232 238 244 239 234 234 237 239 236 222 217 216 222 214 211 222 216 214 227 230 229 226 219 219 215 220 210 206 212 234 260 268 267 244 259 262 252 237 217 193 195 156 221 217 225 222 235 191 170 159 181 147 185 155 169 170 187 160 341 349 323 201 160 106 85 78 70 64 63 58 43 31 26 24 23 22 19 13
244 243 248 243 244 237 235 241 236 241 249 246 235 241 236 238 227 249 275 261 239 218 214 217 224 220 231 233 232 231 243 238 230 217 222 213 212 207 219 221 225 228 264 265 256 254 210 206 215 222 245 252 215 234 205 166 177 157 167 168 171 176 223 210 193 309 334 307 237 160 92 64 70 63 56 55 53 41 22 19 17 16 17 15 11
257 250 257 255 252 250 239 241 245 242 245 246 248 242 238 236 229 213 231 258 258 245 245 239 226 227 226 227 234 243 247 247 245 243 244 241 237 228 221 231 232 236 252 271 276 278 268 239 188 189 241 245 230 219 196 204 169 174 174 187 189 213 226 217 223 196 317 324 326 50 55 50 48 50 47 45 50 44 9 10 10 9 9 8 7
259 263 257 253 261 260 255 255 255 248 250 247 247 252 250 242 231 237 234 230 234 248 249 238 238 241 227 224 221 225 230 235 242 238 243 251 253 258 252 255 263 258 264 280 291 290 288 271 221 198 228 233 244 239 228 243 205 214 225 221 222 220 226 230 198 176 298 337 8 24 37 40 36 37 40 40 41 41 15 0 3 2 360 0 1
253 265 265 258 256 260 257 261 261 260 257 253 248 245 248 251 251 245 248 253 260 255 249 252 246 235 231 225 228 226 226 227 236 245 249 249 248 245 249 255 257 258 257 258 268 280 276 272 234 216 215 248 262 251 241 238 252 266 251 251 237 228 244 241 219 212 140 nan 14 23 32 29 28 21 34 37 31 28 26 1 358 357 nan 355 355
247 253 263 259 258 259 254 252 256 260 258 255 251 244 246 256 263 260 264 273 277 277 274 275 273 266 259 256 246 236 227 223 220 229 232 232 241 247 241 242 240 244 246 247 262 265 267 273 277 230 259 235 252 269 273 293 274 249 254 254 251 241 242 249 251 187 164 176 193 175 18 20 5 17 29 28 24 23 22 11 356 356 nan nan 354
248 249 257 260 256 255 256 253 252 256 257 257 255 255 249 247 252 257 255 266 271 273 283 281 278 277 271 267 265 259 251 239 226 228 235 238 242 236 250 258 255 254 250 243 246 251 265 274 279 299 292 283 270 278 293 291 314 307 263 257 258 254 243 247 239 175 158 163 156 86 75 110 102 62 21 14 17 19 20 19 0 358 355 nan 354
247 245 246 257 261 257 254 254 253 253 256 257 263 263 259 255 257 265 269 263 263 267 268 272 274 277 277 276 277 274 273 272 262 248 248 246 245 244 248 248 247 252 251 249 249 251 261 269 279 270 277 289 308 313 310 318 287 265 250 242 239 245 253 273 225 149 158 155 145 175 182 34 28 15 20 21 17 13 16 15 15 359 355 353 354
243 243 244 245 254 255 254 252 252 252 254 260 264 269 270 266 257 258 263 266 268 267 262 267 277 282 285 284 286 290 273 258 255 251 233 232 235 243 245 248 254 250 251 254 255 259 265 269 270 278 291 288 289 300 282 269 254 226 246 250 249 252 256 266 268 155 151 153 208 219 181 163 125 344 335 352 343 352 4 8 5 343 346 351 nan
242 237 233 237 244 255 257 257 255 254 251 253 261 251 242 245 255 255 258 263 266 266 270 274 278 287 293 291 288 275 273 288 296 299 301 295 296 267 244 237 234 238 248 252 255 256 253 249 254 259 259 267 271 271 266 273 281 284 256 245 240 243 246 253 278 291 245 155 214 280 290 183 77 348 341 349 347 345 342 348 319 324 342 349 351
244 243 238 237 239 246 255 260 260 255 251 243 244 258 257 253 250 261 262 262 270 274 279 283 278 276 279 284 284 298 303 306 314 324 313 304 303 304 303 290 265 257 256 262 265 261 259 257 263 270 264 258 267 271 280 283 290 275 271 262 244 248 252 236 243 272 295 251 252 287 311 324 351 351 339 342 344 336 346 324 327 346 344 348 349
250 245 243 238 236 236 243 251 254 252 250 240 242 245 248 261 264 259 265 270 273 277 279 276 276 278 280 281 285 283 288 278 266 285 303 313 307 303 303 301 302 316 307 280 267 268 267 263 265 264 261 262 261 273 273 271 274 274 277 273 260 246 240 242 247 255 270 276 257 278 301 316 329 337 336 337 336 338 320 323 339 351 352 345 348
246 246 242 238 239 239 235 239 242 246 247 240 239 239 240 246 262 264 262 263 266 273 274 276 273 272 271 271 270 270 273 283 287 287 273 275 299 309 307 306 304 309 311 321 317 295 272 278 271 268 275 263 258 266 266 264 265 272 276 278 262 242 237 235 238 243 257 271 282 262 272 291 311 328 320 316 320 320 326 333 341 344 351 345 345
245 244 243 241 239 238 238 240 241 246 245 241 237 238 238 240 245 261 259 259 265 267 271 275 277 279 278 275 275 277 274 275 280 280 275 274 267 274 284 287 286 303 320 326 329 335 322 293 279 278 279 284 283 275 271 272 272 270 262 253 248 243 241 233 232 247 262 274 282 253 268 288 292 295 304 306 312 315 321 314 332 342 347 343 339
246 245 245 242 239 239 241 244 240 244 245 241 238 234 235 235 243 250 255 256 256 257 262 269 270 268 271 276 276 275 275 275 264 262 266 265 266 267 267 265 273 273 279 292 303 303 303 303 297 290 286 289 292 285 282 284 284 278 275 260 250 249 253 251 262 276 281 291 301 298 289 279 280 290 292 294 299 305 304 316 335 336 338 337 336
248 244 244 242 240 237 238 239 248 250 242 235 233 232 234 233 236 250 254 254 254 256 261 259 260 261 264 264 267 269 270 267 258 256 256 258 263 266 265 264 262 265 265 259 265 276 269 258 256 250 249 241 240 249 257 260 261 262 264 272 273 274 268 258 264 262 266 269 271 275 290 293 291 290 286 289 296 303 300 304 317 331 332 334 333
253 244 240 240 238 238 241 241 241 243 241 234 230 228 229 230 236 251 251 251 255 255 257 261 263 264 263 263 260 262 266 262 255 250 247 247 261 263 265 262 260 257 264 268 282 287 298 302 300 288 271 263 258 247 254 264 277 269 263 265 278 279 268 255 256 260 264 267 270 272 270 282 287 289 286 291 296 298 304 307 306 321 327 326 329
253 246 239 237 239 238 239 238 243 246 242 236 230 229 229 228 230 246 253 254 257 259 261 263 262 265 265 263 261 258 260 261 255 252 247 251 261 260 259 257 256 257 258 261 262 268 285 299 302 302 302 300 299 297 293 296 298 292 291 289 279 271 267 262 256 259 266 270 274 270 283 291 281 284 285 288 294 300 298 294 291 298 317 318 331
235 230 229 239 241 243 243 242 246 245 242 239 234 232 232 231 233 248 250 252 255 259 262 264 266 264 264 263 259 259 258 257 255 255 253 251 258 257 257 256 257 258 258 250 256 256 257 260 268 274 280 292 295 293 296 314 320 310 307 306 288 282 281 275 268 264 266 277 273 275 285 283 284 286 285 285 286 288 291 292 292 291 296 301 308